Benton Harbor, MI

9:54 PM EDT on April 25, 2017 (GMT -0400)
Southwest Michigan Regional

Weather History for KBEH - May, 2013

Change the Weather History Date:

Thursday, May 2, 2013

  Actual Average Record
Temperature  
Mean Temperature 54 °F -  
Max Temperature 66 °F 62 °F 87 °F (1959)
Min Temperature 42 °F 42 °F 25 °F (1990)
Degree Days  
Heating Degree Days 11    
Growing Degree Days 4 (Base 50)    
Moisture  
Dew Point 46 °F    
Average Humidity 78    
Maximum Humidity 90    
Minimum Humidity 65    
Precipitation  
Precipitation 0.00 in - - ()
Sea Level Pressure  
Sea Level Pressure 30.16 in    
Wind  
Wind Speed 5 mph (WNW)    
Max Wind Speed 10 mph    
Max Gust Speed -    
Visibility 10 miles    
Events      
Averages and records for this station are not official NWS values.
T = Trace of Precipitation, MM = Missing Value Source: NWS Daily Summary

Daily Weather History Graph

Daily Weather History Graph

Search for Another Location

Airport or City:

Trip Planner

Search our weather history database for the weather conditions in past years. The results will help you decide how hot, cold, wet, or windy it might be!

Date:

Astronomy

May. 02, 2013 Rise Set
Actual Time 6:39 AM EDT 8:46 PM EDT
Civil Twilight 6:09 AM EDT 9:16 PM EDT
Nautical Twilight 5:31 AM EDT 9:54 PM EDT
Astronomical Twilight 4:50 AM EDT 10:36 PM EDT
Moon 2:34 AM EDT (5/2) 1:27 PM EDT (5/2)
Length of Visible Light 15h 07m
Length of Day
14h 06m
Waning Gibbous, 48% of the Moon is Illuminated
May 2
Waning Gibbous
May 9
New
May 18
First Quarter
May 25
Full
May 31
Last Quarter

Hourly Weather History & Observations

Time (EDT) Temp. Windchill Dew Point Humidity Pressure Visibility Wind Dir Wind Speed Gust Speed Precip Events Conditions
12:53 AM 62.1 °F - 55.9 °F 80% 30.15 in 10.0 mi ESE 3.5 mph - N/A   Clear
1:53 AM 64.0 °F - 55.0 °F 73% 30.14 in 10.0 mi ESE 4.6 mph - N/A   Clear
2:53 AM 66.0 °F - 54.0 °F 65% 30.13 in 10.0 mi SE 5.8 mph - N/A   Clear
3:53 AM 64.9 °F - 54.0 °F 68% 30.13 in 10.0 mi ESE 6.9 mph - N/A   Clear
4:53 AM 63.0 °F - 54.0 °F 72% 30.14 in 10.0 mi West 6.9 mph - N/A   Clear
5:53 AM 55.9 °F - 53.1 °F 90% 30.15 in 10.0 mi NW 3.5 mph - N/A   Clear
6:53 AM 52.0 °F - 48.0 °F 86% 30.16 in 10.0 mi Calm Calm - N/A   Clear
7:53 AM 53.1 °F - 48.9 °F 86% 30.17 in 10.0 mi Calm Calm - N/A   Clear
8:53 AM 57.0 °F - 50.0 °F 77% 30.18 in 10.0 mi Calm Calm - N/A   Clear
9:53 AM 53.1 °F - 46.0 °F 77% 30.19 in 10.0 mi West 5.8 mph - N/A   Clear
10:53 AM 52.0 °F - 45.0 °F 77% 30.19 in 10.0 mi West 4.6 mph - N/A   Clear
11:53 AM 55.9 °F - 46.9 °F 72% 30.19 in 10.0 mi WSW 4.6 mph - N/A   Clear
12:53 PM 52.0 °F - 45.0 °F 77% 30.19 in 10.0 mi West 8.1 mph - N/A   Partly Cloudy
1:53 PM 52.0 °F - 44.1 °F 74% 30.17 in 10.0 mi NW 5.8 mph - N/A   Scattered Clouds
2:53 PM 50.0 °F - 43.0 °F 77% 30.18 in 10.0 mi NW 9.2 mph - N/A   Clear
3:53 PM 48.0 °F - 42.1 °F 80% 30.17 in 10.0 mi NW 10.4 mph - N/A   Clear
4:53 PM 48.0 °F - 41.0 °F 77% 30.15 in 10.0 mi Variable 6.9 mph - N/A   Clear
5:53 PM 48.0 °F - 41.0 °F 77% 30.14 in 10.0 mi NW 8.1 mph - N/A   Clear
6:53 PM 48.0 °F - 39.9 °F 74% 30.13 in 10.0 mi Variable 3.5 mph - N/A   Clear
7:53 PM 46.9 °F - 41.0 °F 80% 30.12 in 10.0 mi Variable 3.5 mph - N/A   Overcast
8:53 PM 45.0 °F 42.6 °F 39.9 °F 82% 30.14 in 10.0 mi NW 4.6 mph - N/A   Partly Cloudy
9:53 PM 43.0 °F 39.5 °F 39.0 °F 86% 30.16 in 10.0 mi WNW 5.8 mph - N/A   Clear
10:53 PM 42.1 °F 40.2 °F 37.9 °F 85% 30.16 in 10.0 mi Variable 3.5 mph - N/A   Clear
11:53 PM 42.1 °F 37.1 °F 37.9 °F 85% 30.15 in 10.0 mi NNW 8.1 mph - N/A   Scattered Clouds